Location: ??
(31.9467°N, 34.8903°E)
Time: 17:22:02
(UTC+00:00)

Cosmos 2082 - Pass Details

Date: 29 October 2020
Orbit: 832 x 857 km, 71.0° (Epoch: 30 November)

Event Time Altitude Azimuth Distance (km) Brightness Sun altitude
Rises 16:33:30 0° 342° (NNW) 3,431 7.1 -21.8°
Reaches altitude 10° 16:35:58 10° 344° (NNW) 2,493 6.3 -22.3°
Maximum altitude 16:41:42 72° 69° (ENE) 897 3.6 -23.5°
Enters shadow 16:43:46 40° 143° (SE) 1,232 4.2 -24.0°
